Time,TemperatureF,DewpointF,PressureIn,WindDirection,WindDirectionDegrees,WindSpeedMPH,WindSpeedGustMPH,Humidity,HourlyPrecipIn,Conditions,Clouds,dailyrainin,SoftwareType,DateUTC
2013-02-18 00:00:00,27.9,9.3,29.18,SSW,211,0.0,0.0,45,0.00,,SKC,0.00,VWS V14.00,2013-02-18 05:00:00,
2013-02-18 00:07:00,27.9,9.3,29.18,SSW,211,0.0,0.0,45,0.00,,SKC,0.00,VWS V14.00,2013-02-18 05:07:00,
2013-02-18 00:12:00,27.9,9.3,29.18,SSW,210,0.0,0.0,45,0.00,,SKC,0.00,VWS V14.00,2013-02-18 05:12:00,
2013-02-18 00:17:00,27.7,9.1,29.18,SSW,211,0.0,0.0,45,0.00,,SKC,0.00,VWS V14.00,2013-02-18 05:17:00,
2013-02-18 00:22:00,27.7,9.6,29.18,SSW,210,0.0,0.0,46,0.00,,SKC,0.00,VWS V14.00,2013-02-18 05:22:00,
2013-02-18 00:27:00,27.9,9.8,29.18,SSW,211,0.0,0.0,46,0.00,,SKC,0.00,VWS V14.00,2013-02-18 05:27:00,
2013-02-18 00:30:00,27.9,9.8,29.18,SSW,210,0.0,0.0,46,0.00,,SKC,0.00,VWS V14.00,2013-02-18 05:30:00,
2013-02-18 00:37:00,27.7,9.6,29.21,SSW,210,0.0,0.0,46,0.00,,SKC,0.00,VWS V14.00,2013-02-18 05:37:00,
2013-02-18 00:42:00,27.7,9.6,29.21,SSW,210,0.0,0.0,46,0.00,,SKC,0.00,VWS V14.00,2013-02-18 05:42:00,
2013-02-18 00:47:00,27.5,9.4,29.21,SSW,210,0.0,0.0,46,0.00,,SKC,0.00,VWS V14.00,2013-02-18 05:47:00,
2013-02-18 00:52:00,27.5,9.9,29.21,SSW,211,0.0,0.0,47,0.00,,SKC,0.00,VWS V14.00,2013-02-18 05:52:00,
2013-02-18 00:57:00,27.5,9.9,29.21,SSW,210,0.0,0.0,47,0.00,,SKC,0.00,VWS V14.00,2013-02-18 05:57:00,
2013-02-18 01:02:00,27.3,9.8,29.21,SSW,210,0.0,0.0,47,0.00,,SKC,0.00,VWS V14.00,2013-02-18 06:02:00,
2013-02-18 01:07:00,27.3,9.8,29.21,SSW,211,0.0,0.0,47,0.00,,SKC,0.00,VWS V14.00,2013-02-18 06:07:00,
2013-02-18 01:12:00,27.3,9.8,29.21,SSW,210,0.0,0.0,47,0.00,,SKC,0.00,VWS V14.00,2013-02-18 06:12:00,
2013-02-18 01:17:00,27.1,9.6,29.21,SSW,210,0.0,0.0,47,0.00,,SKC,0.00,VWS V14.00,2013-02-18 06:17:00,
2013-02-18 01:22:00,27.1,9.6,29.21,SSW,210,0.0,0.0,47,0.00,,SKC,0.00,VWS V14.00,2013-02-18 06:22:00,
2013-02-18 01:27:00,27.0,9.4,29.21,SSW,211,0.0,0.0,47,0.00,,SKC,0.00,VWS V14.00,2013-02-18 06:27:00,
2013-02-18 01:32:00,27.0,9.9,29.21,SSW,210,0.0,0.0,48,0.00,,SKC,0.00,VWS V14.00,2013-02-18 06:32:00,
2013-02-18 01:37:00,27.0,9.9,29.21,SSW,210,0.0,0.0,48,0.00,,SKC,0.00,VWS V14.00,2013-02-18 06:37:00,
2013-02-18 01:42:00,27.0,9.9,29.21,SSW,211,0.0,0.0,48,0.00,,SKC,0.00,VWS V14.00,2013-02-18 06:42:00,
2013-02-18 01:47:00,27.0,9.9,29.21,SSW,210,0.0,0.0,48,0.00,,SKC,0.00,VWS V14.00,2013-02-18 06:47:00,
2013-02-18 01:52:00,27.0,9.9,29.21,SSW,211,0.0,0.0,48,0.00,,SKC,0.00,VWS V14.00,2013-02-18 06:52:00,
2013-02-18 01:57:00,27.0,9.9,29.21,SSW,211,0.0,0.0,48,0.00,,SKC,0.00,VWS V14.00,2013-02-18 06:57:00,
2013-02-18 02:02:00,26.8,9.7,29.21,SSW,211,0.0,0.0,48,0.00,,SKC,0.00,VWS V14.00,2013-02-18 07:02:00,
2013-02-18 02:07:00,26.4,9.9,29.21,SSW,210,0.0,0.0,49,0.00,,SKC,0.00,VWS V14.00,2013-02-18 07:07:00,
2013-02-18 02:12:00,26.4,9.9,29.21,SSW,210,0.0,0.0,49,0.00,,SKC,0.00,VWS V14.00,2013-02-18 07:12:00,
2013-02-18 02:17:00,26.6,10.0,29.21,SSW,211,0.0,0.0,49,0.00,,SKC,0.00,VWS V14.00,2013-02-18 07:17:00,
2013-02-18 02:22:00,26.6,10.0,29.21,SSW,210,0.0,0.0,49,0.00,,SKC,0.00,VWS V14.00,2013-02-18 07:22:00,
2013-02-18 02:27:00,26.4,9.9,29.21,SSW,210,0.0,0.0,49,0.00,,SKC,0.00,VWS V14.00,2013-02-18 07:27:00,
2013-02-18 02:32:00,26.2,9.7,29.21,SSW,210,0.0,0.0,49,0.00,,SKC,0.00,VWS V14.00,2013-02-18 07:32:00,
2013-02-18 02:37:00,26.2,10.1,29.21,SSW,210,0.0,0.0,50,0.00,,SKC,0.00,VWS V14.00,2013-02-18 07:37:00,
2013-02-18 02:42:00,26.2,10.1,29.21,SSW,211,0.0,0.0,50,0.00,,SKC,0.00,VWS V14.00,2013-02-18 07:42:00,
2013-02-18 02:47:00,26.2,10.1,29.21,SSW,210,0.0,0.0,50,0.00,,SKC,0.00,VWS V14.00,2013-02-18 07:47:00,
2013-02-18 02:52:00,26.1,10.0,29.21,SSW,210,0.0,0.0,50,0.00,,SKC,0.00,VWS V14.00,2013-02-18 07:52:00,
2013-02-18 02:57:00,26.1,10.0,29.21,SSW,210,0.0,0.0,50,0.00,,SKC,0.00,VWS V14.00,2013-02-18 07:57:00,
2013-02-18 03:02:00,26.1,10.0,29.21,SSW,210,0.0,0.0,50,0.00,,SKC,0.00,VWS V14.00,2013-02-18 08:02:00,
2013-02-18 03:07:00,26.1,10.4,29.21,SSW,210,0.0,0.0,51,0.00,,SKC,0.00,VWS V14.00,2013-02-18 08:07:00,
2013-02-18 03:12:00,26.1,10.4,29.21,SSW,210,0.0,0.0,51,0.00,,SKC,0.00,VWS V14.00,2013-02-18 08:12:00,
2013-02-18 03:17:00,26.1,10.4,29.21,SSW,210,0.0,0.0,51,0.00,,SKC,0.00,VWS V14.00,2013-02-18 08:17:00,
2013-02-18 03:22:00,26.1,10.4,29.21,SSW,210,0.0,0.0,51,0.00,,SKC,0.00,VWS V14.00,2013-02-18 08:22:00,
2013-02-18 03:27:00,25.9,10.3,29.21,SSW,211,0.0,0.0,51,0.00,,SKC,0.00,VWS V14.00,2013-02-18 08:27:00,
2013-02-18 03:32:00,25.5,9.9,29.21,SSW,210,0.0,0.0,51,0.00,,SKC,0.00,VWS V14.00,2013-02-18 08:32:00,
2013-02-18 03:38:00,25.3,9.8,29.21,SSW,210,0.0,0.0,51,0.00,,SKC,0.00,VWS V14.00,2013-02-18 08:38:00,
2013-02-18 03:43:00,25.3,9.8,29.21,SSW,210,0.0,0.0,51,0.00,,SKC,0.00,VWS V14.00,2013-02-18 08:43:00,
2013-02-18 03:48:00,25.3,9.8,29.21,SSW,211,0.0,0.0,51,0.00,,SKC,0.00,VWS V14.00,2013-02-18 08:48:00,
2013-02-18 03:53:00,25.3,9.8,29.21,SSW,211,0.0,0.0,51,0.00,,SKC,0.00,VWS V14.00,2013-02-18 08:53:00,
2013-02-18 03:58:00,25.5,10.4,29.21,SSW,210,0.0,0.0,52,0.00,,SKC,0.00,VWS V14.00,2013-02-18 08:58:00,
2013-02-18 04:03:00,25.3,10.2,29.21,SSW,211,0.0,0.0,52,0.00,,SKC,0.00,VWS V14.00,2013-02-18 09:03:00,
2013-02-18 04:08:00,25.5,10.4,29.21,SSW,210,0.0,0.0,52,0.00,,SKC,0.00,VWS V14.00,2013-02-18 09:08:00,
2013-02-18 04:13:00,25.3,10.2,29.21,SSW,211,0.0,0.0,52,0.00,,SKC,0.00,VWS V14.00,2013-02-18 09:13:00,
2013-02-18 04:18:00,25.3,10.2,29.21,SSW,210,0.0,0.0,52,0.00,,SKC,0.00,VWS V14.00,2013-02-18 09:18:00,
2013-02-18 04:23:00,25.0,9.9,29.21,SSW,211,0.0,0.0,52,0.00,,SKC,0.00,VWS V14.00,2013-02-18 09:23:00,
2013-02-18 04:28:00,24.8,9.7,29.21,SSW,210,0.0,0.0,52,0.00,,SKC,0.00,VWS V14.00,2013-02-18 09:28:00,
2013-02-18 04:33:00,24.8,10.1,29.21,SSW,210,0.0,0.0,53,0.00,,SKC,0.00,VWS V14.00,2013-02-18 09:33:00,
2013-02-18 04:38:00,24.6,9.9,29.21,SSW,210,0.0,0.0,53,0.00,,SKC,0.00,VWS V14.00,2013-02-18 09:38:00,
2013-02-18 04:43:00,24.6,9.9,29.21,SSW,210,0.0,0.0,53,0.00,,SKC,0.00,VWS V14.00,2013-02-18 09:43:00,
2013-02-18 04:48:00,24.4,9.8,29.21,SSW,211,0.0,0.0,53,0.00,,SKC,0.00,VWS V14.00,2013-02-18 09:48:00,
2013-02-18 04:53:00,24.3,9.6,29.21,SSW,210,0.0,0.0,53,0.00,,SKC,0.00,VWS V14.00,2013-02-18 09:53:00,
2013-02-18 04:58:00,24.3,9.6,29.21,SSW,211,0.0,0.0,53,0.00,,SKC,0.00,VWS V14.00,2013-02-18 09:58:00,
2013-02-18 05:03:00,24.4,9.8,29.21,SSW,210,0.0,0.0,53,0.00,,SKC,0.00,VWS V14.00,2013-02-18 10:03:00,
2013-02-18 05:08:00,24.6,9.9,29.21,SSW,211,0.0,0.0,53,0.00,,SKC,0.00,VWS V14.00,2013-02-18 10:08:00,
2013-02-18 05:13:00,24.6,9.9,29.21,SSW,211,0.0,0.0,53,0.00,,SKC,0.00,VWS V14.00,2013-02-18 10:13:00,
2013-02-18 05:18:00,24.6,9.9,29.21,SSW,211,0.0,0.0,53,0.00,,SKC,0.00,VWS V14.00,2013-02-18 10:18:00,
2013-02-18 05:23:00,24.8,10.1,29.21,SSW,210,0.0,0.0,53,0.00,,SKC,0.00,VWS V14.00,2013-02-18 10:23:00,
2013-02-18 05:28:00,24.8,10.1,29.21,SSW,210,0.0,0.0,53,0.00,,SKC,0.00,VWS V14.00,2013-02-18 10:28:00,
2013-02-18 05:33:00,24.8,10.1,29.21,SSW,210,0.0,0.0,53,0.00,,SKC,0.00,VWS V14.00,2013-02-18 10:33:00,
2013-02-18 05:38:00,24.8,10.1,29.21,SSW,211,0.0,0.0,53,0.00,,SKC,0.00,VWS V14.00,2013-02-18 10:38:00,
2013-02-18 05:43:00,25.0,10.3,29.21,SSW,210,0.0,0.0,53,0.00,,SKC,0.00,VWS V14.00,2013-02-18 10:43:00,
2013-02-18 05:48:00,25.0,10.3,29.21,SSW,210,0.0,0.0,53,0.00,,SKC,0.00,VWS V14.00,2013-02-18 10:48:00,
2013-02-18 05:53:00,25.0,10.3,29.21,SSW,210,0.0,0.0,53,0.00,,SKC,0.00,VWS V14.00,2013-02-18 10:53:00,
2013-02-18 05:58:00,25.0,10.3,29.21,SSW,211,0.0,0.0,53,0.00,,SKC,0.00,VWS V14.00,2013-02-18 10:58:00,
2013-02-18 06:03:00,24.8,10.5,29.21,SSW,211,0.0,0.0,54,0.00,,SKC,0.00,VWS V14.00,2013-02-18 11:03:00,
2013-02-18 06:08:00,24.8,10.5,29.21,SSW,211,0.0,0.0,54,0.00,,SKC,0.00,VWS V14.00,2013-02-18 11:08:00,
2013-02-18 06:13:00,24.8,10.5,29.21,SSW,210,0.0,0.0,54,0.00,,SKC,0.00,VWS V14.00,2013-02-18 11:13:00,
2013-02-18 06:18:00,24.6,10.4,29.23,SSW,210,0.0,0.0,54,0.00,,SKC,0.00,VWS V14.00,2013-02-18 11:18:00,
2013-02-18 06:23:00,24.6,10.4,29.23,SSW,210,0.0,0.0,54,0.00,,SKC,0.00,VWS V14.00,2013-02-18 11:23:00,
2013-02-18 06:28:00,24.6,10.4,29.23,SSW,210,0.0,0.0,54,0.00,,SKC,0.00,VWS V14.00,2013-02-18 11:28:00,
2013-02-18 06:33:00,24.4,10.2,29.23,SSW,211,0.0,0.0,54,0.00,,SKC,0.00,VWS V14.00,2013-02-18 11:33:00,
2013-02-18 06:38:00,24.4,10.2,29.23,SSW,211,0.0,0.0,54,0.00,,SKC,0.00,VWS V14.00,2013-02-18 11:38:00,
2013-02-18 06:43:00,24.6,10.4,29.23,SSW,210,0.0,0.0,54,0.00,,SKC,0.00,VWS V14.00,2013-02-18 11:43:00,
2013-02-18 06:48:00,24.6,10.4,29.23,SSW,210,0.0,0.0,54,0.00,,SKC,0.00,VWS V14.00,2013-02-18 11:48:00,
2013-02-18 06:53:00,24.6,10.4,29.23,SSW,211,0.0,0.0,54,0.00,,SKC,0.00,VWS V14.00,2013-02-18 11:53:00,
2013-02-18 06:58:00,24.6,10.4,29.23,SSW,211,0.0,0.0,54,0.00,,SKC,0.00,VWS V14.00,2013-02-18 11:58:00,
2013-02-18 07:03:00,24.4,10.2,29.23,SSW,210,0.0,0.0,54,0.00,,SKC,0.00,VWS V14.00,2013-02-18 12:03:00,
2013-02-18 07:08:00,24.4,10.2,29.23,SSW,211,0.0,0.0,54,0.00,,SKC,0.00,VWS V14.00,2013-02-18 12:08:00,
2013-02-18 07:13:00,24.6,10.4,29.23,SSW,210,0.0,0.0,54,0.00,,SKC,0.00,VWS V14.00,2013-02-18 12:13:00,
2013-02-18 07:18:00,24.6,10.4,29.23,SSW,210,0.0,0.0,54,0.00,,SKC,0.00,VWS V14.00,2013-02-18 12:18:00,
2013-02-18 07:23:00,24.4,10.2,29.23,SSW,210,0.0,0.0,54,0.00,,SKC,0.00,VWS V14.00,2013-02-18 12:23:00,
2013-02-18 07:30:00,24.4,10.6,29.23,SSW,210,0.0,0.0,55,0.00,,SKC,0.00,VWS V14.00,2013-02-18 12:30:00,
2013-02-18 07:39:00,24.4,10.6,29.23,SSW,210,0.0,0.0,55,0.00,,SKC,0.00,VWS V14.00,2013-02-18 12:39:00,
2013-02-18 07:44:00,24.6,10.8,29.23,SSW,210,0.0,0.0,55,0.00,,SKC,0.00,VWS V14.00,2013-02-18 12:44:00,
2013-02-18 07:49:00,24.6,10.8,29.23,SSW,210,0.0,0.0,55,0.00,,SKC,0.00,VWS V14.00,2013-02-18 12:49:00,
2013-02-18 07:54:00,24.8,10.9,29.23,SSW,211,0.0,0.0,55,0.00,,SKC,0.00,VWS V14.00,2013-02-18 12:54:00,
2013-02-18 07:59:00,25.0,11.1,29.23,SSW,210,0.0,0.0,55,0.00,,SKC,0.00,VWS V14.00,2013-02-18 12:59:00,
2013-02-18 08:04:00,25.2,11.3,29.23,SSW,210,0.0,0.0,55,0.00,,SKC,0.00,VWS V14.00,2013-02-18 13:04:00,
2013-02-18 08:09:00,25.3,11.4,29.23,SSW,210,0.0,0.0,55,0.00,,SKC,0.00,VWS V14.00,2013-02-18 13:09:00,
2013-02-18 08:14:00,25.5,11.6,29.23,SSW,210,0.0,0.0,55,0.00,,SKC,0.00,VWS V14.00,2013-02-18 13:14:00,
2013-02-18 08:19:00,25.7,12.2,29.23,SSW,211,0.0,0.0,56,0.00,,SKC,0.00,VWS V14.00,2013-02-18 13:19:00,
2013-02-18 08:24:00,26.1,12.5,29.23,SSW,210,0.0,0.0,56,0.00,,SKC,0.00,VWS V14.00,2013-02-18 13:24:00,
2013-02-18 08:29:00,26.2,12.7,29.23,SSW,210,0.0,0.0,56,0.00,,SKC,0.00,VWS V14.00,2013-02-18 13:29:00,
2013-02-18 08:34:00,26.6,13.0,29.23,SSW,210,0.0,0.0,56,0.00,,SKC,0.00,VWS V14.00,2013-02-18 13:34:00,
2013-02-18 08:39:00,26.8,13.2,29.23,SSW,211,0.0,0.0,56,0.00,,SKC,0.00,VWS V14.00,2013-02-18 13:39:00,
2013-02-18 08:44:00,27.0,13.4,29.23,SSW,211,0.0,0.0,56,0.00,,SKC,0.00,VWS V14.00,2013-02-18 13:44:00,
2013-02-18 08:49:00,27.3,13.7,29.23,SSW,210,0.0,0.0,56,0.00,,SKC,0.00,VWS V14.00,2013-02-18 13:49:00,
2013-02-18 08:54:00,27.7,14.4,29.23,SSW,211,0.0,0.0,57,0.00,,SKC,0.00,VWS V14.00,2013-02-18 13:54:00,
2013-02-18 08:59:00,28.0,14.8,29.23,SSW,210,0.0,0.0,57,0.00,,SKC,0.00,VWS V14.00,2013-02-18 13:59:00,
2013-02-18 09:04:00,28.6,14.9,29.23,SSW,211,0.0,0.0,56,0.00,,SKC,0.00,VWS V14.00,2013-02-18 14:04:00,
2013-02-18 09:09:00,29.3,15.6,29.23,SSW,210,0.0,0.0,56,0.00,,SKC,0.00,VWS V14.00,2013-02-18 14:09:00,
2013-02-18 09:14:00,29.7,15.9,29.23,SSW,211,0.0,0.0,56,0.00,,SKC,0.00,VWS V14.00,2013-02-18 14:14:00,
2013-02-18 09:19:00,30.0,16.2,29.23,SSW,210,0.0,0.0,56,0.00,,SKC,0.00,VWS V14.00,2013-02-18 14:19:00,
2013-02-18 09:24:00,30.2,16.4,29.23,SSW,210,0.0,0.0,56,0.00,,SKC,0.00,VWS V14.00,2013-02-18 14:24:00,
2013-02-18 09:29:00,30.7,16.5,29.23,SSW,211,0.0,0.0,55,0.00,,SKC,0.00,VWS V14.00,2013-02-18 14:29:00,
2013-02-18 09:34:00,31.3,17.0,29.23,SSW,210,0.0,0.0,55,0.00,,SKC,0.00,VWS V14.00,2013-02-18 14:34:00,
2013-02-18 09:39:00,32.0,17.2,29.23,SSW,210,0.0,0.0,54,0.00,,SKC,0.00,VWS V14.00,2013-02-18 14:39:00,
2013-02-18 09:44:00,32.5,17.8,29.23,SSW,210,0.0,0.0,54,0.00,,SKC,0.00,VWS V14.00,2013-02-18 14:44:00,
2013-02-18 09:49:00,33.1,18.3,29.23,SSE,162,0.0,0.0,54,0.00,,SKC,0.00,VWS V14.00,2013-02-18 14:49:00,
2013-02-18 09:54:00,33.6,18.8,29.23,NE,44,0.0,0.0,54,0.00,,SKC,0.00,VWS V14.00,2013-02-18 14:54:00,
2013-02-18 09:59:00,33.8,18.5,29.23,NNE,30,0.0,0.0,53,0.00,,SKC,0.00,VWS V14.00,2013-02-18 14:59:00,
2013-02-18 10:04:00,34.2,18.8,29.23,NNE,23,0.0,0.0,53,0.00,,SKC,0.00,VWS V14.00,2013-02-18 15:04:00,
2013-02-18 10:09:00,34.5,19.2,29.23,East,99,0.0,0.0,53,0.00,,SKC,0.00,VWS V14.00,2013-02-18 15:09:00,
2013-02-18 10:14:00,34.9,19.5,29.23,ENE,73,0.0,0.0,53,0.00,,SKC,0.00,VWS V14.00,2013-02-18 15:14:00,
2013-02-18 10:19:00,34.9,19.5,29.23,SW,220,0.0,0.0,53,0.00,,SKC,0.00,VWS V14.00,2013-02-18 15:19:00,
2013-02-18 10:24:00,35.4,20.0,29.23,NNE,30,0.0,0.0,53,0.00,,SKC,0.00,VWS V14.00,2013-02-18 15:24:00,
2013-02-18 10:29:00,35.8,20.3,29.23,NE,56,0.0,0.0,53,0.00,,SKC,0.00,VWS V14.00,2013-02-18 15:29:00,
2013-02-18 10:34:00,36.1,20.7,29.23,NW,311,0.0,0.0,53,0.00,,SKC,0.00,VWS V14.00,2013-02-18 15:34:00,
2013-02-18 10:39:00,36.9,20.9,29.23,NNW,345,0.0,0.0,52,0.00,,SKC,0.00,VWS V14.00,2013-02-18 15:39:00,
2013-02-18 10:44:00,37.6,21.1,29.23,SSW,211,0.0,2.7,51,0.00,,SKC,0.00,VWS V14.00,2013-02-18 15:44:00,
2013-02-18 10:49:00,37.9,21.4,29.23,SSW,207,0.0,2.7,51,0.00,,SKC,0.00,VWS V14.00,2013-02-18 15:49:00,
2013-02-18 10:54:00,38.3,21.3,29.23,ENE,58,0.0,3.1,50,0.00,,SKC,0.00,VWS V14.00,2013-02-18 15:54:00,
2013-02-18 10:59:00,38.8,21.8,29.23,NNE,12,0.0,3.1,50,0.00,,SKC,0.00,VWS V14.00,2013-02-18 15:59:00,
2013-02-18 11:04:00,39.2,22.1,29.23,NE,45,0.0,0.0,50,0.00,,SKC,0.00,VWS V14.00,2013-02-18 16:04:00,
2013-02-18 11:09:00,40.1,22.5,29.23,North,9,0.0,3.1,49,0.00,,SKC,0.00,VWS V14.00,2013-02-18 16:09:00,
2013-02-18 11:14:00,40.5,22.8,29.23,NNE,25,0.0,0.0,49,0.00,,SKC,0.00,VWS V14.00,2013-02-18 16:14:00,
2013-02-18 11:19:00,41.2,23.0,29.23,NNE,25,0.0,0.0,48,0.00,,SKC,0.00,VWS V14.00,2013-02-18 16:19:00,
2013-02-18 11:24:00,42.1,22.3,29.23,NNE,24,0.0,4.9,45,0.00,,SKC,0.00,VWS V14.00,2013-02-18 16:24:00,
2013-02-18 11:29:00,42.8,24.0,29.23,North,357,0.0,4.9,47,0.00,,SKC,0.00,VWS V14.00,2013-02-18 16:29:00,
2013-02-18 11:34:00,43.3,25.0,29.21,NNW,329,0.0,0.0,48,0.00,,SKC,0.00,VWS V14.00,2013-02-18 16:34:00,
2013-02-18 11:39:00,44.1,25.6,29.21,North,11,0.0,0.0,48,0.00,,SKC,0.00,VWS V14.00,2013-02-18 16:39:00,
2013-02-18 11:44:00,45.1,26.1,29.21,West,268,0.0,0.0,47,0.00,,SKC,0.00,VWS V14.00,2013-02-18 16:44:00,
2013-02-18 11:49:00,45.9,26.8,29.21,SW,214,0.0,5.4,47,0.00,,SKC,0.00,VWS V14.00,2013-02-18 16:49:00,
2013-02-18 11:54:00,46.6,27.5,29.21,SSW,196,0.0,6.3,47,0.00,,SKC,0.00,VWS V14.00,2013-02-18 16:54:00,
2013-02-18 11:59:00,47.3,28.1,29.21,WSW,245,6.4,6.4,47,0.00,,SKC,0.00,VWS V14.00,2013-02-18 16:59:00,
2013-02-18 12:04:00,48.0,28.2,29.21,WSW,245,3.8,6.3,46,0.00,,SKC,0.00,VWS V14.00,2013-02-18 17:04:00,
2013-02-18 12:09:00,48.9,28.5,29.21,WSW,245,4.8,6.3,45,0.00,,SKC,0.00,VWS V14.00,2013-02-18 17:09:00,
2013-02-18 12:14:00,49.6,28.1,29.21,SW,216,4.8,6.3,43,0.00,,SKC,0.00,VWS V14.00,2013-02-18 17:14:00,
2013-02-18 12:19:00,50.4,29.3,29.18,SSW,207,6.4,6.4,44,0.00,,SKC,0.00,VWS V14.00,2013-02-18 17:19:00,
2013-02-18 12:24:00,51.1,28.8,29.18,SSW,193,6.4,6.4,42,0.00,,SKC,0.00,VWS V14.00,2013-02-18 17:24:00,
2013-02-18 12:29:00,51.6,30.4,29.18,West,264,5.9,6.3,44,0.00,,SKC,0.00,VWS V14.00,2013-02-18 17:29:00,
2013-02-18 12:35:00,51.8,29.5,29.18,SW,235,3.2,5.4,42,0.00,,SKC,0.00,VWS V14.00,2013-02-18 17:35:00,
2013-02-18 12:40:00,52.5,30.1,29.18,SW,230,4.8,6.3,42,0.00,,SKC,0.00,VWS V14.00,2013-02-18 17:40:00,
2013-02-18 12:45:00,52.9,30.4,29.18,WSW,237,4.3,4.9,42,0.00,,SKC,0.00,VWS V14.00,2013-02-18 17:45:00,
2013-02-18 12:50:00,53.2,30.2,29.18,SW,217,4.3,10.1,41,0.00,,SKC,0.00,VWS V14.00,2013-02-18 17:50:00,
2013-02-18 12:55:00,53.6,30.5,29.18,SW,218,4.3,5.8,41,0.00,,SKC,0.00,VWS V14.00,2013-02-18 17:55:00,
2013-02-18 13:00:00,54.0,30.2,29.18,SW,233,3.8,5.8,40,0.00,,SKC,0.00,VWS V14.00,2013-02-18 18:00:00,
2013-02-18 13:05:00,54.3,30.5,29.15,West,277,4.8,7.6,40,0.00,,SKC,0.00,VWS V14.00,2013-02-18 18:05:00,
2013-02-18 13:10:00,54.1,29.8,29.15,SW,217,0.0,7.6,39,0.00,,SKC,0.00,VWS V14.00,2013-02-18 18:10:00,
2013-02-18 13:15:00,54.5,30.1,29.15,SW,236,4.8,5.4,39,0.00,,SKC,0.00,VWS V14.00,2013-02-18 18:15:00,
2013-02-18 13:20:00,55.0,30.5,29.15,SW,232,4.3,5.4,39,0.00,,SKC,0.00,VWS V14.00,2013-02-18 18:20:00,
2013-02-18 13:25:00,55.4,30.2,29.15,WSW,238,0.0,5.4,38,0.00,,SKC,0.00,VWS V14.00,2013-02-18 18:25:00,
2013-02-18 13:30:00,55.9,30.7,29.15,SSW,206,4.3,6.3,38,0.00,,SKC,0.00,VWS V14.00,2013-02-18 18:30:00,
2013-02-18 13:35:00,56.3,31.0,29.12,SW,229,3.2,7.6,38,0.00,,SKC,0.00,VWS V14.00,2013-02-18 18:35:00,
2013-02-18 13:40:00,56.7,31.4,29.12,SW,220,4.3,7.6,38,0.00,,SKC,0.00,VWS V14.00,2013-02-18 18:40:00,
2013-02-18 13:45:00,57.0,31.7,29.12,SW,220,6.4,6.4,38,0.00,,SKC,0.00,VWS V14.00,2013-02-18 18:45:00,
2013-02-18 13:50:00,57.6,31.5,29.12,SSW,210,7.0,7.0,37,0.00,,SKC,0.00,VWS V14.00,2013-02-18 18:50:00,
2013-02-18 13:55:00,58.3,32.2,29.12,SSW,205,4.8,8.1,37,0.00,,SKC,0.00,VWS V14.00,2013-02-18 18:55:00,
2013-02-18 14:00:00,58.8,32.6,29.12,SSW,201,0.0,8.1,37,0.00,,SKC,0.00,VWS V14.00,2013-02-18 19:00:00,
2013-02-18 14:05:00,59.4,32.4,29.12,SW,215,3.8,4.5,36,0.00,,SKC,0.00,VWS V14.00,2013-02-18 19:05:00,
2013-02-18 14:10:00,59.7,32.7,29.12,NW,323,0.0,6.3,36,0.00,,SKC,0.00,VWS V14.00,2013-02-18 19:10:00,
2013-02-18 14:15:00,60.1,33.1,29.12,West,262,0.0,4.0,36,0.00,,SKC,0.00,VWS V14.00,2013-02-18 19:15:00,
2013-02-18 14:20:00,60.4,33.4,29.09,SSW,212,0.0,5.4,36,0.00,,SKC,0.00,VWS V14.00,2013-02-18 19:20:00,
2013-02-18 14:25:00,60.4,33.4,29.09,SW,224,3.2,3.6,36,0.00,,SKC,0.00,VWS V14.00,2013-02-18 19:25:00,
2013-02-18 14:30:00,60.4,33.4,29.09,SSW,197,9.7,9.7,36,0.00,,SKC,0.00,VWS V14.00,2013-02-18 19:30:00,
2013-02-18 14:35:00,60.6,32.8,29.09,SSW,206,6.4,8.1,35,0.00,,SKC,0.00,VWS V14.00,2013-02-18 19:35:00,
2013-02-18 14:40:00,60.8,33.0,29.09,South,188,4.8,8.1,35,0.00,,SKC,0.00,VWS V14.00,2013-02-18 19:40:00,
2013-02-18 14:45:00,61.0,33.2,29.09,SW,223,4.3,6.3,35,0.00,,SKC,0.00,VWS V14.00,2013-02-18 19:45:00,
2013-02-18 14:50:00,61.2,33.3,29.09,SSW,197,6.4,6.4,35,0.00,,SKC,0.00,VWS V14.00,2013-02-18 19:50:00,
2013-02-18 14:55:00,61.3,33.5,29.09,SW,214,6.4,6.4,35,0.00,,SKC,0.00,VWS V14.00,2013-02-18 19:55:00,
2013-02-18 15:00:00,61.2,32.6,29.09,WSW,246,6.4,10.1,34,0.00,,SKC,0.00,VWS V14.00,2013-02-18 20:00:00,
2013-02-18 15:05:00,61.2,32.6,29.09,SW,222,4.3,5.8,34,0.00,,SKC,0.00,VWS V14.00,2013-02-18 20:05:00,
2013-02-18 15:10:00,61.2,32.6,29.09,SW,231,4.8,5.8,34,0.00,,SKC,0.00,VWS V14.00,2013-02-18 20:10:00,
2013-02-18 15:15:00,61.0,32.4,29.09,SSW,209,0.0,4.0,34,0.00,,SKC,0.00,VWS V14.00,2013-02-18 20:15:00,
2013-02-18 15:20:00,61.0,32.4,29.06,SW,236,5.9,10.5,34,0.00,,SKC,0.00,VWS V14.00,2013-02-18 20:20:00,
2013-02-18 15:25:00,61.0,32.4,29.06,SSE,155,4.8,8.1,34,0.00,,SKC,0.00,VWS V14.00,2013-02-18 20:25:00,
2013-02-18 15:30:00,61.3,32.8,29.06,SSW,207,4.8,8.1,34,0.00,,SKC,0.00,VWS V14.00,2013-02-18 20:30:00,
2013-02-18 15:35:00,61.5,32.9,29.06,SW,234,2.7,5.4,34,0.00,,SKC,0.00,VWS V14.00,2013-02-18 20:35:00,
2013-02-18 15:40:00,61.3,32.8,29.06,South,189,3.8,7.6,34,0.00,,SKC,0.00,VWS V14.00,2013-02-18 20:40:00,
2013-02-18 15:45:00,61.0,32.4,29.06,SW,215,6.4,8.7,34,0.00,,SKC,0.00,VWS V14.00,2013-02-18 20:45:00,
2013-02-18 15:50:00,60.6,32.1,29.06,South,188,3.8,8.7,34,0.00,,SKC,0.00,VWS V14.00,2013-02-18 20:50:00,
2013-02-18 15:55:00,60.4,32.0,29.06,WSW,258,0.0,5.8,34,0.00,,SKC,0.00,VWS V14.00,2013-02-18 20:55:00,
2013-02-18 16:00:00,60.3,31.1,29.06,SW,226,2.7,7.6,33,0.00,,SKC,0.00,VWS V14.00,2013-02-18 21:00:00,
2013-02-18 16:05:00,59.9,30.8,29.06,WSW,252,3.2,6.3,33,0.00,,SKC,0.00,VWS V14.00,2013-02-18 21:05:00,
2013-02-18 16:10:00,59.7,30.6,29.06,South,174,3.8,3.8,33,0.00,,SKC,0.00,VWS V14.00,2013-02-18 21:10:00,
2013-02-18 16:15:00,59.7,30.6,29.06,WSW,237,0.0,3.6,33,0.00,,SKC,0.00,VWS V14.00,2013-02-18 21:15:00,
2013-02-18 16:20:00,59.5,30.4,29.06,SW,218,3.2,3.2,33,0.00,,SKC,0.00,VWS V14.00,2013-02-18 21:20:00,
2013-02-18 16:25:00,59.5,29.7,29.06,ESE,103,4.8,5.8,32,0.00,,SKC,0.00,VWS V14.00,2013-02-18 21:25:00,
2013-02-18 16:31:00,59.4,29.5,29.06,SSW,207,3.2,3.6,32,0.00,,SKC,0.00,VWS V14.00,2013-02-18 21:31:00,
2013-02-18 16:36:00,59.2,29.4,29.06,SSE,154,4.3,6.7,32,0.00,,SKC,0.00,VWS V14.00,2013-02-18 21:36:00,
2013-02-18 16:41:00,59.0,29.2,29.06,SW,219,6.4,6.4,32,0.00,,SKC,0.00,VWS V14.00,2013-02-18 21:41:00,
2013-02-18 16:46:00,58.8,29.0,29.06,SSW,210,0.0,5.4,32,0.00,,SKC,0.00,VWS V14.00,2013-02-18 21:46:00,
2013-02-18 16:51:00,58.6,28.9,29.03,SSE,168,7.5,7.5,32,0.00,,SKC,0.00,VWS V14.00,2013-02-18 21:51:00,
2013-02-18 16:56:00,58.5,28.7,29.03,SSE,156,3.8,8.1,32,0.00,,SKC,0.00,VWS V14.00,2013-02-18 21:56:00,
2013-02-18 17:01:00,58.3,27.8,29.03,WSW,240,4.8,5.4,31,0.00,,SKC,0.00,VWS V14.00,2013-02-18 22:01:00,
2013-02-18 17:06:00,58.1,27.6,29.03,SSW,196,4.3,7.2,31,0.00,,SKC,0.00,VWS V14.00,2013-02-18 22:06:00,
2013-02-18 17:11:00,57.9,27.5,29.03,SSW,202,4.8,4.8,31,0.00,,SKC,0.00,VWS V14.00,2013-02-18 22:11:00,
2013-02-18 17:16:00,57.7,27.3,29.03,South,178,4.8,6.3,31,0.00,,SKC,0.00,VWS V14.00,2013-02-18 22:16:00,
2013-02-18 17:21:00,57.6,27.2,29.03,South,190,6.4,6.4,31,0.00,,SKC,0.00,VWS V14.00,2013-02-18 22:21:00,
2013-02-18 17:26:00,57.4,27.0,29.03,South,172,3.8,5.8,31,0.00,,SKC,0.00,VWS V14.00,2013-02-18 22:26:00,
2013-02-18 17:31:00,57.0,26.7,29.03,SSW,194,4.3,4.3,31,0.00,,SKC,0.00,VWS V14.00,2013-02-18 22:31:00,
2013-02-18 17:36:00,56.8,26.5,29.03,SW,214,4.3,6.3,31,0.00,,SKC,0.00,VWS V14.00,2013-02-18 22:36:00,
2013-02-18 17:41:00,56.7,26.4,29.03,SW,225,3.8,4.0,31,0.00,,SKC,0.00,VWS V14.00,2013-02-18 22:41:00,
2013-02-18 17:46:00,56.5,26.2,29.00,SW,215,0.0,6.3,31,0.00,,SKC,0.00,VWS V14.00,2013-02-18 22:46:00,
2013-02-18 17:51:00,56.3,26.1,29.00,South,190,3.2,4.0,31,0.00,,SKC,0.00,VWS V14.00,2013-02-18 22:51:00,
2013-02-18 17:56:00,56.1,25.9,29.00,South,191,0.0,7.6,31,0.00,,SKC,0.00,VWS V14.00,2013-02-18 22:56:00,
2013-02-18 18:01:00,55.8,25.6,29.00,SSW,196,3.8,3.8,31,0.00,,SKC,0.00,VWS V14.00,2013-02-18 23:01:00,
2013-02-18 18:06:00,55.4,25.3,29.00,SSW,200,2.7,3.6,31,0.00,,SKC,0.00,VWS V14.00,2013-02-18 23:06:00,
2013-02-18 18:11:00,55.0,25.0,29.00,SSW,200,3.8,4.0,31,0.00,,SKC,0.00,VWS V14.00,2013-02-18 23:11:00,
2013-02-18 18:16:00,54.7,24.7,29.00,SW,227,7.5,7.5,31,0.00,,SKC,0.00,VWS V14.00,2013-02-18 23:16:00,
2013-02-18 18:21:00,54.5,24.5,29.00,SW,223,4.3,4.3,31,0.00,,SKC,0.00,VWS V14.00,2013-02-18 23:21:00,
2013-02-18 18:26:00,54.3,24.4,29.00,SW,229,3.8,5.8,31,0.00,,SKC,0.00,VWS V14.00,2013-02-18 23:26:00,
2013-02-18 18:31:00,54.0,24.0,29.00,SSW,209,3.2,4.9,31,0.00,,SKC,0.00,VWS V14.00,2013-02-18 23:31:00,
2013-02-18 18:36:00,53.8,23.9,29.00,SSW,210,3.8,10.1,31,0.00,,SKC,0.00,VWS V14.00,2013-02-18 23:36:00,
2013-02-18 18:41:00,53.4,23.6,29.00,SSW,213,4.3,4.3,31,0.00,,SKC,0.00,VWS V14.00,2013-02-18 23:41:00,
2013-02-18 18:46:00,53.4,23.6,29.00,SSW,206,3.2,4.9,31,0.00,,SKC,0.00,VWS V14.00,2013-02-18 23:46:00,
2013-02-18 18:51:00,53.4,23.6,29.00,WSW,243,2.7,4.0,31,0.00,,SKC,0.00,VWS V14.00,2013-02-18 23:51:00,
2013-02-18 18:56:00,53.2,24.2,29.00,SW,227,0.0,5.8,32,0.00,,SKC,0.00,VWS V14.00,2013-02-18 23:56:00,
2013-02-18 19:01:00,53.1,24.0,29.00,SW,225,8.6,8.6,32,0.00,,SKC,0.00,VWS V14.00,2013-02-19 00:01:00,
2013-02-18 19:06:00,53.1,24.0,29.00,SW,221,7.0,9.2,32,0.00,,SKC,0.00,VWS V14.00,2013-02-19 00:06:00,
2013-02-18 19:11:00,53.1,24.0,29.00,South,173,8.6,9.2,32,0.00,,SKC,0.00,VWS V14.00,2013-02-19 00:11:00,
2013-02-18 19:16:00,53.1,24.0,29.00,SSW,195,7.0,9.2,32,0.00,,SKC,0.00,VWS V14.00,2013-02-19 00:16:00,
2013-02-18 19:21:00,53.1,24.0,29.00,SE,128,9.1,9.1,32,0.00,,SKC,0.00,VWS V14.00,2013-02-19 00:21:00,
2013-02-18 19:26:00,53.1,24.0,29.00,SSW,209,7.0,9.6,32,0.00,,SKC,0.00,VWS V14.00,2013-02-19 00:26:00,
2013-02-18 19:31:00,52.9,23.1,29.00,SW,225,4.3,5.8,31,0.00,,SKC,0.00,VWS V14.00,2013-02-19 00:31:00,
2013-02-18 19:36:00,52.7,22.9,29.00,SSE,166,9.1,9.1,31,0.00,,SKC,0.00,VWS V14.00,2013-02-19 00:36:00,
2013-02-18 19:41:00,52.7,22.9,29.00,SSW,203,4.3,6.3,31,0.00,,SKC,0.00,VWS V14.00,2013-02-19 00:41:00,
2013-02-18 19:46:00,52.5,22.8,29.00,SSW,199,7.0,11.0,31,0.00,,SKC,0.00,VWS V14.00,2013-02-19 00:46:00,
2013-02-18 19:51:00,52.5,22.8,29.00,SW,229,10.5,10.5,31,0.00,,SKC,0.00,VWS V14.00,2013-02-19 00:51:00,
2013-02-18 19:56:00,52.7,22.9,29.00,SW,236,7.0,14.5,31,0.00,,SKC,0.00,VWS V14.00,2013-02-19 00:56:00,
2013-02-18 20:01:00,52.5,22.8,29.00,South,171,9.7,9.7,31,0.00,,SKC,0.00,VWS V14.00,2013-02-19 01:01:00,
2013-02-18 20:06:00,52.2,22.5,29.00,SW,223,6.4,11.0,31,0.00,,SKC,0.00,VWS V14.00,2013-02-19 01:06:00,
2013-02-18 20:12:00,52.0,22.3,29.00,South,185,4.8,7.2,31,0.00,,SKC,0.00,VWS V14.00,2013-02-19 01:12:00,
2013-02-18 20:17:00,51.8,22.1,29.00,SSW,201,7.5,8.7,31,0.00,,SKC,0.00,VWS V14.00,2013-02-19 01:17:00,
2013-02-18 20:22:00,51.6,22.7,29.00,WSW,248,5.9,8.1,32,0.00,,SKC,0.00,VWS V14.00,2013-02-19 01:22:00,
2013-02-18 20:27:00,51.6,22.7,29.00,SSW,209,4.8,8.7,32,0.00,,SKC,0.00,VWS V14.00,2013-02-19 01:27:00,
2013-02-18 20:32:00,51.6,22.7,29.00,SW,222,7.5,9.6,32,0.00,,SKC,0.00,VWS V14.00,2013-02-19 01:32:00,
2013-02-18 20:37:00,51.4,22.6,29.00,SSW,196,7.0,9.6,32,0.00,,SKC,0.00,VWS V14.00,2013-02-19 01:37:00,
2013-02-18 20:42:00,51.4,22.6,29.00,South,185,6.4,10.5,32,0.00,,SKC,0.00,VWS V14.00,2013-02-19 01:42:00,
2013-02-18 20:47:00,51.6,22.7,29.00,SSE,148,8.6,10.5,32,0.00,,SKC,0.00,VWS V14.00,2013-02-19 01:47:00,
2013-02-18 20:52:00,51.3,22.4,28.97,South,174,9.9,11.0,32,0.00,,SKC,0.00,VWS V14.00,2013-02-19 01:52:00,
2013-02-18 20:57:00,51.3,22.4,28.97,SSW,202,7.5,11.9,32,0.00,,SKC,0.00,VWS V14.00,2013-02-19 01:57:00,
2013-02-18 21:02:00,51.3,22.4,28.94,SW,214,9.7,12.3,32,0.00,,SKC,0.00,VWS V14.00,2013-02-19 02:02:00,
2013-02-18 21:07:00,51.3,22.4,28.94,SE,126,9.9,12.3,32,0.00,,SKC,0.00,VWS V14.00,2013-02-19 02:07:00,
2013-02-18 21:12:00,51.3,22.4,28.94,SW,229,7.0,15.4,32,0.00,,SKC,0.00,VWS V14.00,2013-02-19 02:12:00,
2013-02-18 21:17:00,51.1,22.3,28.94,WSW,252,0.0,15.4,32,0.00,,SKC,0.00,VWS V14.00,2013-02-19 02:17:00,
2013-02-18 21:22:00,50.9,22.1,28.94,South,185,7.0,8.7,32,0.00,,SKC,0.00,VWS V14.00,2013-02-19 02:22:00,
2013-02-18 21:27:00,50.9,22.1,28.94,SW,225,9.7,13.2,32,0.00,,SKC,0.00,VWS V14.00,2013-02-19 02:27:00,
2013-02-18 21:32:00,50.9,22.1,28.94,SE,137,7.5,9.2,32,0.00,,SKC,0.00,VWS V14.00,2013-02-19 02:32:00,
2013-02-18 21:37:00,50.7,22.0,28.94,WSW,243,4.3,13.2,32,0.00,,SKC,0.00,VWS V14.00,2013-02-19 02:37:00,
2013-02-18 21:42:00,50.7,22.0,28.94,SW,222,9.7,11.0,32,0.00,,SKC,0.00,VWS V14.00,2013-02-19 02:42:00,
2013-02-18 21:47:00,50.5,21.8,28.94,WSW,253,4.3,11.0,32,0.00,,SKC,0.00,VWS V14.00,2013-02-19 02:47:00,
2013-02-18 21:52:00,50.5,21.8,28.94,SSE,168,12.6,12.6,32,0.00,,SKC,0.00,VWS V14.00,2013-02-19 02:52:00,
2013-02-18 21:57:00,50.4,21.6,28.94,SW,224,10.5,11.9,32,0.00,,SKC,0.00,VWS V14.00,2013-02-19 02:57:00,
2013-02-18 22:02:00,50.4,21.6,28.94,SSE,165,11.5,11.5,32,0.00,,SKC,0.00,VWS V14.00,2013-02-19 03:02:00,
2013-02-18 22:07:00,50.4,21.6,28.94,SW,216,9.7,11.0,32,0.00,,SKC,0.00,VWS V14.00,2013-02-19 03:07:00,
2013-02-18 22:12:00,50.4,21.6,28.94,SSW,207,5.9,8.7,32,0.00,,SKC,0.00,VWS V14.00,2013-02-19 03:12:00,
2013-02-18 22:17:00,50.4,21.6,28.94,WSW,244,9.1,12.3,32,0.00,,SKC,0.00,VWS V14.00,2013-02-19 03:17:00,
2013-02-18 22:22:00,50.2,21.5,28.94,South,189,6.4,6.4,32,0.00,,SKC,0.00,VWS V14.00,2013-02-19 03:22:00,
2013-02-18 22:27:00,50.0,21.3,28.94,SW,219,4.3,11.0,32,0.00,,SKC,0.00,VWS V14.00,2013-02-19 03:27:00,
2013-02-18 22:32:00,50.0,21.3,28.94,WSW,241,9.1,10.1,32,0.00,,SKC,0.00,VWS V14.00,2013-02-19 03:32:00,
2013-02-18 22:37:00,50.0,21.3,28.94,SW,214,9.1,12.8,32,0.00,,SKC,0.00,VWS V14.00,2013-02-19 03:37:00,
2013-02-18 22:42:00,50.2,21.5,28.94,SSW,212,7.5,12.3,32,0.00,,SKC,0.00,VWS V14.00,2013-02-19 03:42:00,
2013-02-18 22:47:00,50.2,21.5,28.94,SW,220,9.9,12.3,32,0.00,,SKC,0.00,VWS V14.00,2013-02-19 03:47:00,
2013-02-18 22:52:00,50.2,21.5,28.94,SSW,195,7.0,12.3,32,0.00,,SKC,0.00,VWS V14.00,2013-02-19 03:52:00,
2013-02-18 22:57:00,50.2,21.5,28.94,SSE,164,9.1,12.3,32,0.00,,SKC,0.00,VWS V14.00,2013-02-19 03:57:00,
2013-02-18 23:02:00,50.2,21.5,28.91,SSW,208,7.5,8.7,32,0.00,,SKC,0.00,VWS V14.00,2013-02-19 04:02:00,
2013-02-18 23:07:00,50.2,21.5,28.91,SSE,159,9.1,12.3,32,0.00,,SKC,0.00,VWS V14.00,2013-02-19 04:07:00,
2013-02-18 23:12:00,50.0,21.3,28.91,SW,234,4.3,12.3,32,0.00,,SKC,0.00,VWS V14.00,2013-02-19 04:12:00,
2013-02-18 23:17:00,49.8,21.2,28.94,SW,232,6.4,12.3,32,0.00,,SKC,0.00,VWS V14.00,2013-02-19 04:17:00,
2013-02-18 23:22:00,49.8,21.9,28.94,SSW,198,12.6,12.6,33,0.00,,SKC,0.00,VWS V14.00,2013-02-19 04:22:00,
2013-02-18 23:27:00,49.8,21.2,28.94,South,184,12.6,12.6,32,0.00,,SKC,0.00,VWS V14.00,2013-02-19 04:27:00,
2013-02-18 23:32:00,50.0,21.3,28.94,SSW,206,7.5,15.0,32,0.00,,SKC,0.00,VWS V14.00,2013-02-19 04:32:00,
2013-02-18 23:37:00,50.2,21.5,28.94,WSW,246,3.2,15.0,32,0.00,,SKC,0.00,VWS V14.00,2013-02-19 04:37:00,
2013-02-18 23:42:00,50.0,21.3,28.94,SW,223,10.5,10.5,32,0.00,,SKC,0.00,VWS V14.00,2013-02-19 04:42:00,
2013-02-18 23:47:00,49.8,21.9,28.94,SW,227,7.5,11.0,33,0.00,,SKC,0.00,VWS V14.00,2013-02-19 04:47:00,
2013-02-18 23:52:00,49.8,21.9,28.94,WSW,239,9.7,13.2,33,0.00,,SKC,0.00,VWS V14.00,2013-02-19 04:52:00,
2013-02-18 23:57:00,49.8,21.9,28.94,SSW,192,7.0,13.2,33,0.00,,SKC,0.00,VWS V14.00,2013-02-19 04:57:00,